Location: Bord�res
(43.2000°N, 0.2167°W)
Time: 10:17:04
(UTC+00:00)

Okean-O - Pass Details

Date: 03 March 2021
Orbit: 639 x 640 km, 98.2° (Epoch: 21 April)

Event Time Altitude Azimuth Distance (km) Brightness Sun altitude
Rises 18:20:56 0° 152° (SSE) 2,932 5.8 -6.0°
Reaches altitude 10° 18:23:10 10° 147° (SSE) 2,028 4.9 -6.4°
Maximum altitude 18:27:26 51° 72° (ENE) 813 2.8 -7.1°
Drops below altitude 10° 18:31:45 10° 357° (N) 2,043 5.3 -7.9°
Sets 18:34:00 0° 352° (N) 2,956 6.1 -8.3°
